Theta_e
311 314 315 317 319 318 318 317 317 317 318 318 319 319 320 321 320 321 321 322 322 323 322 321 321 321 318 318 318 318 318 320 320 326 347 348 350 352 351 348 346 341 341 343
313 314 315 316 318 318 318 318 317 318 318 319 319 319 320 321 321 321 322 322 325 325 326 326 326 321 318 318 318 318 318 318 319 334 338 346 350 351 351 347 347 340 343 340
314 315 316 317 317 319 318 318 319 319 319 319 319 320 320 320 321 320 323 325 325 326 327 328 329 325 319 322 321 320 318 318 320 326 338 342 347 351 350 349 350 346 344 340
315 317 318 318 318 319 319 318 318 319 318 318 320 319 321 321 321 321 325 325 326 327 328 329 330 329 327 321 319 319 318 319 320 320 342 344 346 348 348 350 351 347 340 341
317 318 318 319 319 318 319 318 318 319 320 320 320 319 321 321 321 323 325 325 326 326 328 329 330 331 330 325 322 320 319 319 324 325 335 346 346 347 348 348 344 342 339 338
318 317 318 318 318 318 318 319 320 321 321 322 320 321 321 321 321 326 325 324 325 325 326 326 328 329 331 334 336 329 326 323 325 331 341 344 346 347 344 342 339 336 333 326
318 318 318 319 319 318 319 321 321 321 321 320 322 321 321 325 325 325 325 324 324 324 324 324 324 326 327 330 332 335 336 336 336 336 337 337 337 337 336 328 331 329 328 327
319 319 319 319 320 321 320 321 320 321 321 321 321 320 325 325 323 324 324 324 324 324 324 324 322 323 322 323 324 325 326 327 327 327 322 321 321 328 328 327 326 325 324 325
319 321 320 321 320 321 321 322 322 322 322 322 321 325 325 325 324 324 323 322 322 322 322 323 324 322 321 322 320 322 323 322 319 318 318 318 318 318 322 318 317 324 324 324
320 322 321 321 321 322 323 322 322 322 323 324 322 323 323 327 326 324 322 321 321 320 321 321 322 323 323 322 321 320 321 320 319 319 319 319 318 318 318 318 317 317 318 320
321 323 324 322 322 322 323 322 322 325 324 325 325 324 324 326 326 325 323 320 320 320 320 320 319 319 320 320 319 318 318 317 317 317 317 317 317 316 317 317 317 318 317 317
322 322 325 323 321 320 322 323 323 327 325 324 324 327 325 325 326 324 322 320 319 319 319 318 318 317 317 316 316 315 315 315 314 314 313 313 313 313 313 313 314 314 314 314
322 322 325 324 322 320 322 322 322 324 327 328 330 327 323 324 324 323 322 320 318 317 317 316 316 316 315 315 314 314 314 313 313 312 312 312 312 312 311 310 309 309 310 311
320 324 324 324 322 324 323 322 322 324 329 325 323 323 323 322 321 319 318 317 317 316 316 316 316 315 315 314 314 313 313 312 311 311 311 311 311 311 310 308 308 309 310 310
322 325 322 319 318 318 318 318 318 319 320 319 318 317 317 317 316 317 316 316 316 317 316 315 315 315 314 314 313 313 312 311 310 310 309 309 309 309 309 309 309 309 309 309
320 322 320 319 316 316 316 316 315 315 316 316 316 316 316 316 317 317 317 316 316 316 315 315 314 314 313 313 312 311 311 310 309 309 308 308 308 308 308 307 308 307 308 308
321 321 320 319 317 316 315 315 315 315 315 315 315 316 318 318 318 318 317 317 316 316 316 315 314 313 313 312 311 311 310 309 308 308 307 307 306 306 306 306 306 306 307 308
321 320 319 316 315 314 317 315 315 316 316 316 316 317 317 318 318 317 316 316 315 315 314 314 313 312 312 311 310 310 309 308 307 307 306 306 305 305 304 305 305 306 306 305
318 319 320 318 317 316 315 318 317 318 318 319 319 318 318 317 317 316 316 315 314 313 313 312 311 311 310 309 309 308 308 307 306 305 305 304 304 304 304 304 304 302 303 302
317 317 318 318 320 317 320 319 317 316 316 318 317 317 317 316 318 317 315 314 313 313 312 311 310 309 309 308 308 307 305 305 304 304 303 303 303 302 302 301 300 299 299 300
318 319 320 318 320 318 317 317 316 318 321 317 316 316 316 317 316 314 314 313 312 311 311 310 308 308 308 307 305 304 304 303 303 303 302 301 300 299 298 298 299 298 298 298
319 320 319 318 317 318 316 316 316 319 316 315 314 314 314 314 313 313 312 312 311 310 309 308 308 307 306 304 303 302 302 302 302 300 298 298 297 296 297 297 297 297 297 296
320 319 321 319 318 317 315 316 315 314 313 312 312 313 313 313 312 311 311 310 309 308 308 307 306 304 303 302 302 301 301 299 297 296 295 295 296 297 296 295 296 297 298 297
317 316 316 317 316 315 314 314 312 311 311 311 312 312 311 311 310 309 309 308 308 307 306 305 303 302 301 301 300 298 297 295 294 294 294 295 295 296 296 297 298 299 300 299
314 315 315 315 314 311 310 311 311 311 312 312 311 310 309 308 308 307 307 306 306 305 303 302 301 301 300 299 297 295 294 293 293 293 294 295 296 297 299 300 301 301 303 300
310 312 313 313 311 312 312 312 311 311 310 309 308 308 307 306 306 305 304 303 302 302 301 300 300 299 296 295 294 293 292 292 292 292 294 296 297 299 300 301 305 305 304 305
Wind_Speed
24 16 18 22 19 12 14 18 12 14 11 21 20 20 17 13 11 10 10 5 4 6 7 6 11 13 17 21 25 27 27 26 24 21 17 19 21 20 21 19 20 19 19 18
14 20 20 20 18 13 11 14 16 13 12 13 17 15 16 9 12 7 4 3 1 4 5 5 3 3 9 14 17 23 29 27 28 20 19 16 16 17 18 18 18 22 21 21
18 17 17 13 16 18 14 14 12 8 8 11 7 14 14 13 9 8 6 3 3 6 7 8 8 4 5 6 8 10 19 24 24 23 19 19 16 16 17 17 16 19 18 20
16 6 16 18 18 17 16 12 9 10 8 11 13 10 14 15 12 8 4 4 5 7 8 10 9 8 5 6 9 11 15 20 23 26 19 21 16 15 15 15 16 16 17 21
12 13 19 18 16 12 8 7 11 11 11 10 11 8 10 9 11 12 3 6 8 8 10 11 12 11 11 7 6 10 15 18 17 21 19 17 17 16 16 14 17 16 18 16
11 13 13 12 11 13 4 9 6 6 8 11 16 11 12 14 12 8 6 8 7 8 10 12 13 13 13 12 10 6 2 3 6 9 10 13 14 15 13 12 10 10 10 12
9 14 8 7 12 11 13 12 7 8 9 9 7 7 7 9 6 4 8 9 9 9 10 11 12 14 16 17 15 14 13 12 11 10 9 7 8 8 10 9 8 9 9 10
13 13 14 11 12 11 16 15 7 9 8 7 8 7 6 7 8 9 9 8 7 7 7 9 10 11 12 15 16 16 14 13 11 10 9 7 7 3 3 5 6 7 10 11
14 8 4 7 6 8 12 11 4 6 1 7 5 7 6 7 8 9 7 6 5 4 4 4 5 5 5 7 8 8 8 7 5 3 2 1 2 4 5 9 11 11 15 15
8 10 7 8 9 5 9 10 8 9 8 12 7 7 6 15 13 11 9 6 3 2 1 1 2 1 1 2 2 2 4 3 5 6 6 7 10 12 14 17 19 21 22 22
10 5 9 9 9 12 8 10 8 6 4 6 8 1 8 9 13 12 7 2 2 4 5 4 5 2 1 1 2 4 5 5 6 6 8 10 13 15 17 20 21 22 24 26
3 5 10 6 5 4 5 8 8 7 9 7 9 9 5 3 9 7 6 2 6 7 5 4 3 1 1 2 3 6 7 7 8 9 11 13 16 17 19 21 23 25 27 28
7 4 6 5 5 4 7 7 8 4 4 12 9 3 4 6 7 9 9 5 9 6 4 2 1 1 2 4 6 8 9 11 11 13 14 15 18 20 22 25 27 29 29 29
4 6 11 4 3 7 8 9 9 11 7 10 13 12 10 9 8 10 14 16 11 8 3 1 1 3 5 7 9 11 12 13 14 16 18 19 20 23 26 28 29 29 29 29
3 7 5 2 4 2 4 8 10 13 13 9 10 8 7 9 12 14 13 12 9 6 4 3 5 7 10 12 14 15 16 17 18 20 21 23 23 24 25 26 27 28 29 30
1 4 5 7 3 5 8 11 13 15 14 13 14 15 13 6 6 6 2 3 4 5 6 7 9 11 14 15 17 18 19 20 21 23 24 24 25 27 28 28 29 30 30 30
6 6 6 7 2 5 11 15 17 16 12 9 12 6 4 6 6 6 6 6 7 9 9 11 12 14 16 18 20 22 23 24 25 26 26 27 28 29 30 30 31 32 31 30
7 7 4 3 5 7 6 5 4 3 5 7 9 8 7 7 8 8 8 8 9 11 11 14 17 19 20 22 24 25 25 26 27 28 28 29 29 31 31 32 32 31 31 33
3 4 3 3 7 7 9 3 1 3 3 3 6 6 6 6 9 14 9 5 10 12 15 18 20 22 25 26 27 27 28 28 29 30 30 30 30 32 32 31 31 32 33 36
6 4 4 2 3 2 7 5 3 2 6 6 4 4 8 9 8 3 7 13 16 18 19 21 23 25 27 28 27 28 30 30 31 31 32 31 31 31 31 30 34 43 39 39
8 6 8 5 3 4 5 4 1 4 5 4 4 7 10 9 11 15 18 19 18 19 21 23 25 27 28 28 28 30 31 31 31 31 31 32 31 29 32 42 40 35 36 36
7 7 4 4 3 6 7 6 5 6 4 7 10 13 16 17 17 18 19 19 20 22 24 25 27 28 28 28 29 31 32 31 31 32 32 31 31 42 39 37 35 34 33 33
5 2 5 7 2 5 4 3 3 5 10 13 15 15 14 16 18 19 20 22 24 25 27 27 27 29 29 28 29 31 32 31 31 30 31 40 40 37 33 33 32 31 31 33
4 5 3 3 7 4 2 5 8 9 10 12 11 12 13 15 16 20 23 25 27 28 27 27 28 29 31 29 29 29 29 29 30 37 40 39 37 34 32 30 29 29 30 31
4 8 6 4 3 3 4 3 4 6 7 8 8 9 12 15 20 23 26 27 27 27 27 27 29 30 30 29 28 26 26 32 36 36 36 34 32 31 30 28 28 28 27 28
7 2 4 1 6 2 4 5 5 4 6 7 10 15 16 18 23 24 25 25 26 26 28 28 28 27 28 27 28 26 35 31 32 33 32 31 30 29 29 29 28 26 27 24
Wind_Direction
193 203 206 201 208 215 197 207 191 209 175 195 219 216 235 218 219 214 214 220 281 320 317 283 249 247 241 237 236 241 238 237 240 244 228 224 228 225 224 224 227 233 233 229
178 212 202 203 209 210 205 210 198 191 183 219 200 226 237 207 217 225 196 186 26 335 351 350 331 265 240 237 237 244 236 231 236 238 233 229 233 225 221 219 221 229 232 233
191 199 206 209 205 211 204 214 182 201 190 223 249 238 220 227 212 169 138 100 45 6 1 2 7 343 265 254 235 232 229 230 236 231 238 234 229 212 215 213 220 228 232 237
205 184 186 201 198 209 209 209 247 221 206 232 197 250 200 212 205 185 146 64 38 26 21 24 22 14 337 272 253 243 236 236 238 241 226 230 220 226 222 211 211 216 234 238
181 174 197 200 204 203 232 189 214 226 222 245 188 246 172 186 203 162 113 70 52 43 39 33 32 27 21 1 297 261 246 245 234 239 224 231 226 223 214 201 218 212 228 230
144 200 191 196 202 203 166 183 170 211 221 224 225 213 206 182 219 130 98 76 75 70 59 50 43 43 41 41 41 38 8 279 262 249 233 225 226 218 204 199 191 189 197 211
161 176 159 186 174 175 199 193 189 208 207 237 119 209 273 104 123 137 124 108 92 82 72 63 58 53 52 54 60 62 71 78 87 100 109 127 149 159 164 155 177 193 216 219
190 173 184 176 199 181 199 202 235 227 214 199 143 239 126 115 132 133 124 115 101 78 67 59 60 65 67 68 69 70 72 76 77 84 96 107 118 151 154 186 199 222 236 251
197 140 143 210 192 243 167 223 327 284 284 281 225 115 131 160 159 157 135 111 85 71 65 55 58 61 65 67 72 69 71 70 78 75 43 328 277 264 256 261 265 261 257 256
198 156 182 152 178 170 269 167 195 218 258 250 234 244 279 177 176 165 157 127 91 52 27 333 9 29 69 57 35 7 33 346 298 289 277 275 263 263 263 261 259 258 257 259
163 224 157 185 207 193 175 208 232 301 288 251 264 207 36 176 180 183 160 140 347 326 317 320 337 344 44 49 8 14 6 357 343 325 304 292 287 290 286 281 277 274 272 271
166 225 168 176 50 330 315 292 212 222 237 252 283 284 66 100 159 186 197 272 345 334 331 333 334 15 16 12 359 346 348 337 332 325 317 303 295 291 287 285 283 281 279 276
172 199 182 184 187 181 229 205 256 287 316 256 248 241 106 132 174 206 242 280 312 319 328 336 16 57 20 350 340 330 330 322 320 317 310 305 300 297 293 290 286 282 278 275
167 193 220 251 59 144 202 214 221 222 220 242 238 253 162 187 233 266 277 291 296 278 270 290 311 337 334 328 323 321 317 313 311 307 303 298 294 291 289 287 284 281 278 275
187 201 221 79 117 166 237 211 206 223 227 242 257 249 263 288 293 289 287 284 274 242 249 272 298 310 312 313 314 314 311 311 308 303 300 297 295 291 289 286 283 281 280 278
162 161 193 189 176 223 242 234 237 238 243 253 262 269 274 283 280 285 304 267 252 255 269 283 294 304 307 308 310 309 311 308 306 302 299 296 294 292 289 287 286 284 282 280
164 159 192 220 189 252 253 240 236 237 233 252 247 277 359 284 281 294 304 290 288 293 289 289 297 302 305 307 307 306 304 304 302 300 298 296 295 292 291 289 286 284 283 281
172 192 155 182 190 227 82 92 25 298 234 232 249 277 282 292 299 289 290 298 302 305 301 303 304 305 305 306 307 304 303 303 302 300 299 297 296 293 291 289 287 285 281 279
220 159 184 209 201 323 206 114 229 244 164 34 299 285 306 307 304 275 270 301 306 308 306 307 306 305 306 307 306 303 303 304 302 302 299 298 296 293 292 288 285 285 283 277
144 208 174 178 223 250 77 114 77 352 247 42 12 358 348 334 283 24 325 308 308 306 304 305 304 304 305 305 304 303 303 302 302 301 298 296 295 292 289 288 286 293 290 290
169 171 193 190 250 293 96 122 89 257 53 30 345 312 301 294 304 301 303 302 302 300 301 302 301 301 301 302 302 300 301 301 301 299 296 296 293 292 289 297 298 296 294 294
168 165 187 165 193 253 141 154 247 35 323 319 306 296 297 296 297 296 296 299 300 300 302 302 301 300 300 301 302 300 300 302 299 297 298 297 293 299 301 300 298 296 294 290
196 197 171 188 191 104 145 64 348 319 310 310 306 307 301 292 296 303 304 302 302 302 302 302 302 301 301 303 303 301 301 301 303 301 299 299 305 305 306 304 301 299 296 294
173 182 226 188 158 205 254 262 284 292 297 302 314 309 307 304 306 304 304 304 303 303 303 303 303 302 302 304 302 301 304 306 303 301 306 308 311 313 310 306 303 300 300 299
46 168 208 222 174 254 123 28 341 314 314 317 319 315 313 310 306 306 304 304 303 302 303 303 303 303 304 304 304 306 309 306 308 307 309 313 315 315 315 313 310 307 305 303
181 187 207 46 87 336 38 6 5 9 12 345 328 315 313 312 308 307 305 305 304 304 305 305 304 303 305 307 306 305 312 313 309 309 314 317 317 320 320 321 317 315 318 317